sat.trackr.live / text

‹ back to catalog

STARLINK-36934

NORAD 68279 · 2026-055T

PAYLOAD ACTIVE UNKNOWN

§ Identity

Operator
Country
US
Launch date
2026-03-19
Launch site
AFETR
Launch vehicle
Mass (kg)
RCS (m²)

Purposes: comms

External: N2YO · Heavens-Above · Gunter

§ Orbital elements

Epoch: 2026-09-19T22:24:13.345056Z

Period
93.85 min
Inclination
53.1569°
Eccentricity
0.0001668
Mean motion
15.34412518 rev/d
Perigee alt
461.5 km
Apogee alt
463.8 km
Semi-major
6,840.8 km
B*
5.4429e-4
RAAN
132.5472°
Arg perigee
80.3813°
Mean anomaly
279.7378°
Rev number
2,973

§ Raw data

STARLINK-369341 68279U 26055T   26262.93348779  .00018065  00000+0  54429-3 0  99942 68279  53.1569 132.5472 0001668  80.3813 279.7378 15.34412518 29739

JSON: /api/v1/satellites/68279 · /tle

For live sub-satellite position, see the globe view (requires WebGL).

§ Visibility from observer

Set your observer location to see the next 7 days of passes ≥ 10°. The values pass through the URL so the page stays shareable.

No JS? Fill the form by hand. The geolocation button needs JavaScript.